Location: Baturyn
(53.6332°N, 113.5041°W)
Time: 16:30:29
(UTC+00:00)

N. Korean satellite - Pass Details

Date: 06 December 2021
Orbit: 446 x 492 km, 97.3° (Epoch: 16 January)

Event Time Altitude Azimuth Distance (km) Brightness Sun altitude
Rises 23:48:53 0° 167° (SSE) 2,520 10.5 -4.9°
Reaches altitude 10° 23:50:56 10° 168° (SSE) 1,638 9.5 -5.2°
Maximum altitude 23:54:28 81° 257° (WSW) 481 6.6 -5.6°
Drops below altitude 10° 23:57:57 10° 345° (NNW) 1,624 9.1 -6.1°
Sets 23:59:59 0° 346° (NNW) 2,496 10.0 -6.3°
